Location: El Barbasco
(9.9682°N, 67.7441°W)
Time: 19:56:36
(UTC+00:00)

Cosmos 2263 - Pass Details

Date: 05 August 2024
Orbit: 829 x 865 km, 70.9° (Epoch: 07 September)

Event Time Altitude Azimuth Distance (km) Brightness Sun altitude
Rises 23:42:58 0° 193° (SSW) 3,383 7.3 -12.6°
Reaches altitude 10° 23:45:24 10° 192° (SSW) 2,453 6.5 -13.2°
Maximum altitude 23:51:02 80° 105° (ESE) 862 4.1 -14.5°
Drops below altitude 10° 23:56:43 10° 19° (NNE) 2,477 6.7 -15.8°
Sets 23:59:11 0° 18° (NNE) 3,418 7.4 -16.4°
